Tracking 28531 objects as of 27-Feb-2024
HD Live streaming from Space Station
objects crossing your sky now

TITAN 3C TRANSTAGE DEB

Track TITAN 3C TRANSTAGE DEB now!


NORAD ID: 43282
Int'l Code: 1969-013C
Perigee: 37,182.9 km
Apogee: 39,770.5 km
Inclination: 0.9 °
Period: 1,575.3 minutes
Semi major axis: 44847 km
RCS: Unknown
Launch date: February 9, 1969
Source: United States (US)
Launch site: AIR FORCE EASTERN TEST RANGE (AFETR)

Note: This is SATELLITE DEBRIS
Your satellite tracking list
Your tracking list is empty




NASA's NSSDC Master Catalog

Two Line Element Set (TLE):
1 43282U 69013C   24058.23589006 -.00000146  00000-0  00000-0 0  9992
2 43282   0.9370 340.0754 0288489 302.4430  74.2545  0.91409723 19909
Source of the keplerian elements: AFSPC